Location: Bullenkuhlen
(53.7689°N, 9.7495°E)
Time: 13:41:24
(UTC+00:00)

CZ-2C R/B - Pass Details

Date: 09 April 2020
Orbit: 785 x 870 km, 98.3° (Epoch: 03 June)

Event Time Altitude Azimuth Distance (km) Brightness Sun altitude
Rises 19:14:42 0° 18° (NNE) 3,292 5.9 -9.4°
Reaches altitude 10° 19:17:09 10° 26° (NNE) 2,358 5.1 -9.7°
Maximum altitude 19:22:06 43° 98° (E) 1,094 2.9 -10.4°
Drops below altitude 10° 19:27:02 10° 170° (S) 2,359 4.7 -11.0°
Sets 19:29:29 0° 177° (S) 3,293 5.4 -11.3°
